Weather in Ayanka

Russia / Kamchatka Krai     63°43′33″N   167°35′02″E
temp.,
°C
wind,
m/s
gust,
m/s
humid.,
%
clouds,
%
prec.,
mm/h
press.,
hPa
HPBL,
m
28 february, sun
sun2800:00−31nnw22810 0.0 103019
03:00−31nnw22810 0.0 103119
06:00−32nnw12810 0.0 103119
09:00−31nnw22790 0.0 103119
12:00−27n11820 0.0 103153
15:00−27ne11880 0.0 102925
18:00−30n22860 0.0 102920
21:00−30n33780 0.0 102821
1 march, mon
mon100:00−30nnw34780 0.0 102648
03:00−29n487970 0.0 1022151
06:00−29n598085 0.0 1019162
09:00−28n51383100 0.0 1016366
12:00−24nne71679100 0.0 1014711
15:00−22nne81877100 0.0 1011797
18:00−24n51782100 0.0 1010667
21:00−25nnw51281100 0.0 1012250
2 march, tue
tue200:00−26nw5680100 0.0 101292
03:00−26nw5578100 0.0 101381
06:00−27nw567787 0.0 101466
09:00−26nw447628 0.0 101552
12:00−22nnw338042 0.0 101698
15:00−21nnw228192 0.0 101758
18:00−25nnw227562 0.0 101920
21:00−26nw22740 0.0 102220
3 march, wed
wed300:00−27nnw22730 0.0 102419
03:00−28wnw117338 0.0 102619
06:00−29nw127137 0.0 102819
09:00−29nnw117153 0.0 102919
12:00−25nne227666 0.0 103075
15:00−25e118224 0.0 102955
18:00−27nne127945 0.0 102820
21:00−26nne2282100 0.0 102635
4 march, thu
thu400:00−25ne2585100 0.0 1021190
03:00−24ne51188100 0.1 1016471
06:00−23ne71599100 3.3 1008560
09:00−23ne71697100 4.6 1001586
12:00−17ne122292100 6.1 992664
15:00−5ene162586100 2.1 9821140
18:00−3ene132087100 6.0 976825
21:00−13s5884100 1.5 975230